Location: Columbus
(35.2256°N, 82.1549°W)
Time: 17:42:40
(UTC-05:00)

Envisat - Pass Details

Date: 09 December 2021
Orbit: 764 x 766 km, 98.2° (Epoch: 21 January)

Event Time Altitude Azimuth Distance (km) Brightness Sun altitude
Rises 04:10:28 0° 35° (NE) 3,234 6.6 -39.0°
Reaches altitude 10° 04:13:50 10° 58° (ENE) 2,302 6.0 -38.4°
Maximum altitude 04:16:38 15° 92° (E) 1,981 5.8 -37.8°
Drops below altitude 10° 04:19:26 10° 126° (SE) 2,293 6.0 -37.2°
Sets 04:22:46 0° 150° (SSE) 3,213 6.6 -36.5°
